Location: Nitra
(0.0000°N, 18.0833°E)
Time: 12:43:56
(UTC+02:00)

Explorer 11/Cluster Stage 4 - All Passes

Search period start: 30 March 2023 00:00
Search period end: 09 April 2023 00:00
Orbit: 466 x 1241 km, 28.8° (Epoch: 29 March)

Date Brightness Start Highest point End Pass type
(mag) Time Alt. Az. Time Alt. Az. Time Alt. Az.
30 Mar - 00:06:19 10° SSW 00:10:16 22° SSE 00:13:40 10° ESE night (unlit)
30 Mar - 01:54:18 10° WSW 01:58:35 58° NNW 02:02:15 10° NE night (unlit)
30 Mar - 11:02:14 10° N 11:06:13 18° NNE 11:10:42 10° ENE daylight
30 Mar - 12:48:22 10° NW 12:54:59 67° NNE 13:02:48 10° ESE daylight
30 Mar - 14:37:18 10° W 14:44:12 40° SSW 14:51:45 10° SE daylight
30 Mar - 16:29:58 10° SW 16:34:11 15° SSW 16:38:26 10° S daylight
30 Mar - 23:52:07 10° SSW 23:56:42 28° SSE 00:00:33 10° E night (unlit)
31 Mar - 01:40:37 10° WSW 01:44:59 46° NNW 01:48:41 10° NE night (unlit)
31 Mar - 10:48:22 10° NNW 10:52:28 20° NNE 10:57:09 10° ENE daylight
31 Mar - 12:34:41 10° NW 12:41:06 76° NNE 12:48:50 10° ESE daylight
31 Mar - 14:23:48 10° W 14:30:21 35° SSW 14:37:36 10° SE daylight
31 Mar - 16:16:57 10° SW 16:20:28 13° SSW 16:24:01 10° S daylight
31 Mar - 21:52:02 10° S 21:53:43 11° SSE 21:55:19 10° SSE visible
31 Mar - 23:37:58 10° SW 23:43:07 35° SSE 23:47:20 10° E night (unlit)
01 Apr - 01:26:56 10° W 01:31:21 38° NNW 01:35:04 10° NE night (unlit)
01 Apr - 10:34:33 10° NNW 10:38:43 22° NNE 10:43:33 10° E daylight
01 Apr - 12:21:03 10° WNW 12:27:14 86° NNE 12:34:50 10° ESE daylight
01 Apr - 14:10:23 10° W 14:16:32 31° SSW 14:23:23 10° SSE daylight
01 Apr - 16:04:10 10° SW 16:06:46 12° SSW 16:09:24 10° S daylight
01 Apr - 21:36:56 10° S 21:40:08 14° SSE 21:43:04 10° SE visible
01 Apr - 23:23:50 10° SW 23:29:29 44° SSE 23:34:02 10° E night (unlit)
02 Apr - 01:13:15 10° W 01:17:42 32° NNW 01:21:26 10° NNE night (unlit)
02 Apr - 10:20:46 10° NNW 10:24:57 24° NNE 10:29:54 10° E daylight
02 Apr - 12:07:27 10° WNW 12:13:23 82° SSW 12:20:47 10° ESE daylight
02 Apr - 13:57:03 10° W 14:02:44 27° SSW 14:09:07 10° SSE daylight
02 Apr - 15:52:06 10° SSW 15:53:05 10° SSW 15:54:05 10° S daylight
02 Apr - 21:22:16 10° SSW 21:26:30 17° SSE 21:30:18 10° ESE visible
02 Apr - 23:09:43 10° SW 23:15:49 54° SSE 23:20:39 10° ENE night (unlit)
03 Apr - 00:59:35 10° W 01:04:01 28° NNW 01:07:45 10° NNE night (unlit)
03 Apr - 10:07:01 10° NNW 10:11:12 26° NNE 10:16:12 10° E daylight
03 Apr - 11:53:55 10° WNW 11:59:35 71° SSW 12:06:42 10° SE daylight
03 Apr - 13:43:48 10° WSW 13:48:58 23° SSW 13:54:47 10° SSE daylight
03 Apr - 21:07:46 10° SSW 21:12:50 20° SSE 21:17:19 10° ESE visible
03 Apr - 22:55:37 10° SW 23:02:06 66° SSE 23:07:13 10° ENE night (unlit)
04 Apr - 00:45:56 10° W 00:50:19 24° NNW 00:54:02 10° NNE night (unlit)
04 Apr - 09:53:17 10° NNW 09:57:27 30° NNE 10:02:29 10° E daylight
04 Apr - 11:40:25 10° WNW 11:45:49 60° SSW 11:52:35 10° SE daylight
04 Apr - 13:30:39 10° WSW 13:35:14 19° SSW 13:40:21 10° SSE daylight
04 Apr - 20:53:21 10° SSW 20:59:07 24° SSE 21:04:10 10° ESE visible
04 Apr - 22:41:33 10° SW 22:48:21 78° SSE 22:53:43 10° ENE visible
05 Apr - 00:32:18 10° W 00:36:36 22° NNW 00:40:16 10° NNE night (unlit)
05 Apr - 09:39:35 10° NNW 09:43:43 34° NNE 09:48:45 10° E daylight
05 Apr - 11:26:58 10° WNW 11:32:04 49° SSW 11:38:27 10° SE daylight
05 Apr - 13:17:38 10° WSW 13:21:32 16° SSW 13:25:50 10° SSE daylight
05 Apr - 18:53:21 10° S 18:55:07 11° SSE 18:56:50 10° SSE daylight
05 Apr - 20:39:00 10° SSW 20:45:21 28° SSE 20:50:55 10° E visible
05 Apr - 22:27:28 10° WSW 22:34:33 89° NNW 22:40:10 10° ENE visible
06 Apr - 00:18:41 10° WNW 00:22:51 20° NNW 00:26:28 10° NNE night (unlit)
06 Apr - 09:25:55 10° NW 09:29:59 39° NNE 09:34:58 10° ESE daylight
06 Apr - 11:13:35 10° W 11:18:21 41° SSW 11:24:16 10° SE daylight
06 Apr - 13:04:51 10° SW 13:07:52 14° SSW 13:11:08 10° S daylight
06 Apr - 18:38:19 10° S 18:41:24 12° SSE 18:44:25 10° SE daylight
06 Apr - 20:24:42 10° SW 20:31:33 33° SSE 20:37:33 10° E visible
06 Apr - 22:13:26 10° WSW 22:20:42 78° NNW 22:26:33 10° NE visible
07 Apr - 00:05:06 10° WNW 00:09:06 18° NNW 00:12:37 10° N night (unlit)
07 Apr - 09:12:16 10° NW 09:16:17 46° NNE 09:21:11 10° ESE daylight
07 Apr - 11:00:16 10° W 11:04:40 33° SSW 11:10:03 10° SE daylight
07 Apr - 12:52:33 10° SSW 12:54:13 11° SSW 12:55:59 10° S daylight
07 Apr - 18:23:41 10° S 18:27:40 14° SSE 18:31:32 10° SE daylight
07 Apr - 20:10:26 10° SW 20:17:42 38° SSE 20:24:06 10° E visible
07 Apr - 21:59:24 10° WSW 22:06:50 68° NNW 22:12:53 10° NE visible
07 Apr - 23:51:32 10° WNW 23:55:21 16° NNW 23:58:43 10° N night (unlit)
08 Apr - 08:58:39 10° NW 09:02:35 56° NNE 09:07:23 10° ESE daylight
08 Apr - 10:47:00 10° W 10:51:00 27° SSW 10:55:47 10° SSE daylight
08 Apr - 18:09:14 10° SSW 18:13:53 16° SSE 18:18:26 10° ESE daylight
08 Apr - 19:56:13 10° SW 20:03:48 43° SSE 20:10:34 10° E visible
08 Apr - 21:45:24 10° WSW 21:52:55 60° NNW 21:59:10 10° NE visible
08 Apr - 23:38:02 10° WNW 23:41:34 15° NNW 23:44:46 10° N night (unlit)
